Waarnemingen

Advertentie
Mijn weer
Hohn, Duitsland (10038): temperatuur & dauwpunt: 14.10.2018 21:00:00 - 20.10.2018 21:00:00 (CEST)Hohn, Duitsland (10038): windsnelheid: 14.10.2018 21:00:00 - 20.10.2018 21:00:00 (CEST)Hohn, Duitsland (10038): windrichting: 14.10.2018 21:00:00 - 20.10.2018 21:00:00 (CEST)Hohn, Duitsland (10038): luchtdruk: 14.10.2018 21:00:00 - 20.10.2018 21:00:00 (CEST)Hohn, Duitsland (10038): zicht: 14.10.2018 21:00:00 - 20.10.2018 21:00:00 (CEST)
Datum & Tijd tt [°C] td [°C] ff [km/u] ff [kn] dd ppp [hPa] vv [km]
20.10.2018 21:00:00 6,6 5,8 7 4 W 1029,1 15
20.10.2018 20:00:00 6,7 5,5 7 4 W 1029,0 20
20.10.2018 19:00:00 8,8 5,8 7 4 WNW 1028,6 20
20.10.2018 18:00:00 11,6 7,3 11 6 W 1028,3 20
20.10.2018 17:00:00 13,5 7,0 18 10 WNW 1028,5 20
20.10.2018 16:00:00 14,8 7,1 22 12 WNW 1028,2 20
20.10.2018 15:00:00 14,6 7,4 22 12 WNW 1028,0 20
20.10.2018 14:00:00 14,9 9,0 18 10 WNW 1027,8 20
20.10.2018 13:00:00 14,6 9,2 22 12 W 1028,0 20
20.10.2018 12:00:00 12,3 9,6 7 4 ZZW 1027,8 20
20.10.2018 11:00:00 11,6 8,7 11 6 ZZW 1027,6 15
20.10.2018 10:00:00 10,3 7,9 7 4 ZW 1027,4 15
20.10.2018 09:00:00 9,4 7,8 4 2 WNW 1027,4 12
20.10.2018 08:00:00 9,5 7,6 13 7 ZW 1027,1 10
20.10.2018 07:00:00 9,3 7,2 11 6 ZW 1027,0 15
20.10.2018 06:00:00 8,9 5,4 11 6 ZZW 1026,7 20
20.10.2018 05:00:00 8,4 4,8 11 6 ZZW 1026,4 30
20.10.2018 04:00:00 8,5 4,6 11 6 ZZW 1026,1 30
20.10.2018 03:00:00 8,5 4,9 7 4 ZW 1026,8 25
20.10.2018 02:00:00 7,8 4,2 7 4 ZZW 1026,8 25
20.10.2018 01:00:00 5,4 3,0 4 2 WNW 1026,7 20
20.10.2018 00:00:00 8,3 4,5 7 4 Z 1026,6 25
19.10.2018 23:00:00 8,2 4,9 4 2 WZW 1026,8 20
19.10.2018 22:00:00 8,3 4,2 4 2 N 1026,6 20
19.10.2018 21:00:00 8,5 4,7 7 4 W 1026,8 20
19.10.2018 20:00:00 8,2 4,2 4 2 W 1026,2 20
19.10.2018 19:00:00 8,4 3,2 7 4 W 1025,9 20
19.10.2018 18:00:00 10,8 3,8 7 4 W 1025,5 25
19.10.2018 17:00:00 11,9 3,9 11 6 WNW 1025,7 25
19.10.2018 16:00:00 12,1 3,9 4 2 W 1025,7 25
19.10.2018 15:00:00 12,5 3,1 4 2 W 1026,3 25
19.10.2018 14:00:00 12,3 2,6 4 2 NW 1026,7 25
19.10.2018 13:00:00 11,7 3,3 11 6 NW 1027,0 25
19.10.2018 12:00:00 10,4 6,1 7 4 W 1027,2 25
19.10.2018 11:00:00 8,3 5,7 7 4 W 1027,4 15
19.10.2018 10:00:00 2,8 2,2 0 0 N 1027,3 2,0
19.10.2018 09:00:00 -0,6 -1,1 0 0 N 1027,1 0,3
19.10.2018 08:00:00 -0,8 -1,4 4 2 WNW 1026,8 0,3
19.10.2018 07:00:00 -0,7 -1,4 4 2 WNW 1026,6 0,3
19.10.2018 06:00:00 -0,8 -1,7 7 4 W 1026,6 0,4
19.10.2018 05:00:00 -0,1 -1,0 4 2 N 1026,6 0,4
19.10.2018 04:00:00 0,2 -0,7 4 2 W 1026,6 5
19.10.2018 03:00:00 0,9 -0,1 7 4 W 1026,6 5
19.10.2018 02:00:00 1,1 0,0 7 4 W 1026,8 5
19.10.2018 01:00:00 1,9 0,7 7 4 W 1027,0 10
19.10.2018 00:00:00 2,8 1,5 4 2 WNW 1026,9 15
18.10.2018 23:00:00 5,3 3,9 7 4 NW 1026,9 15
18.10.2018 22:00:00 3,7 2,3 7 4 NW 1026,7 15
18.10.2018 21:00:00 5,1 3,7 7 4 W 1026,1 15
18.10.2018 20:00:00 5,9 3,8 7 4 NNW 1025,8 20
18.10.2018 19:00:00 8,3 4,7 7 4 NNW 1025,3 30
18.10.2018 18:00:00 12,7 5,1 11 6 NNW 1024,8 30
18.10.2018 17:00:00 13,9 6,0 18 10 NNW 1024,6 30
18.10.2018 16:00:00 14,9 5,9 14 8 NNO 1024,3 30
18.10.2018 15:00:00 14,8 6,4 18 10 NNO 1024,4 30
18.10.2018 14:00:00 14,4 6,3 18 10 NNO 1024,2 30
18.10.2018 13:00:00 13,9 6,6 22 12 NNO 1024,4 25
18.10.2018 12:00:00 12,6 8,6 11 6 N 1024,1 25
18.10.2018 11:00:00 12,2 11,1 13 7 N 1023,5 10
18.10.2018 10:00:00 12,5 12,0 18 10 NNW 1022,8 3,8
18.10.2018 09:00:00 12,2 11,8 7 4 WNW 1022,3 2,5
18.10.2018 08:00:00 12,0 11,5 4 2 NW 1021,6 2,0
18.10.2018 07:00:00 12,0 11,5 4 2 NW 1021,1 3,8
18.10.2018 06:00:00 11,4 11,0 8 4 WNW 1021,0 1,0
18.10.2018 05:00:00 11,2 10,7 7 4 W 1021,0 0,3
18.10.2018 04:00:00 10,9 10,4 4 2 W 1020,6 0,3
18.10.2018 03:00:00 11,2 10,7 7 4 W 1020,6 2,0
18.10.2018 02:00:00 11,2 10,7 11 6 W 1020,7 2,0
18.10.2018 01:00:00 10,2 9,6 7 4 W 1020,4 2,0
18.10.2018 00:00:00 12,1 11,4 7 4 WNW 1020,6 2,0
17.10.2018 23:00:00 11,4 10,8 11 6 W 1020,5 2,0
17.10.2018 22:00:00 11,9 11,2 7 4 W 1020,4 4,0
17.10.2018 21:00:00 12,9 12,1 14 8 W 1019,8 4,0
17.10.2018 20:00:00 13,7 12,3 11 6 W 1019,5 4,0
17.10.2018 19:00:00 14,4 12,4 11 6 W 1019,0 4,8
17.10.2018 18:00:00 16,1 12,5 11 6 W 1018,7 6
17.10.2018 17:00:00 18,1 12,8 14 8 WNW 1018,6 10
17.10.2018 16:00:00 20,6 13,3 14 8 W 1018,3 12
17.10.2018 15:00:00 21,2 12,9 11 6 WZW 1018,3 12
17.10.2018 14:00:00 21,1 12,6 11 6 Z 1018,3 12
17.10.2018 13:00:00 20,3 12,2 11 6 Z 1018,6 12
17.10.2018 12:00:00 18,8 12,7 11 6 Z 1018,9 10
17.10.2018 11:00:00 17,0 13,4 4 2 N 1018,9 7
17.10.2018 10:00:00 14,3 13,0 7 4 N 1018,8 4,5
17.10.2018 09:00:00 12,5 11,8 7 4 ZO 1018,6 4,0
17.10.2018 08:00:00 11,9 11,3 11 6 ZZO 1018,5 4,0
17.10.2018 07:00:00 12,4 11,7 11 6 ZO 1018,3 4,0
17.10.2018 06:00:00 12,2 11,5 4 2 N 1018,4 3,0
17.10.2018 05:00:00 12,7 12,1 4 2 NO 1018,2 3,5
17.10.2018 04:00:00 12,9 12,3 11 6 ZZO 1018,3 2,5
17.10.2018 03:00:00 11,6 10,9 11 6 ZO 1018,7 2,5
17.10.2018 02:00:00 12,4 11,8 7 4 ZZO 1018,9 2,0
17.10.2018 01:00:00 12,5 11,8 7 4 ZZO 1018,8 3,5
17.10.2018 00:00:00 12,4 11,6 4 2 ZO 1019,1 3,5
16.10.2018 23:00:00 13,3 12,5 7 4 ZO 1019,2 3,5
16.10.2018 22:00:00 12,8 12,1 4 2 ZO 1019,5 3,0
16.10.2018 21:00:00 12,8 11,8 4 2 ZO 1019,6 4,0
16.10.2018 20:00:00 13,6 12,3 0 0 N 1019,4 4,5
16.10.2018 19:00:00 15,1 13,2 4 2 ZW 1019,0 4,5
16.10.2018 18:00:00 16,3 14,0 4 2 ZZW 1018,7 5
16.10.2018 17:00:00 16,8 13,9 7 4 WZW 1018,5 5
16.10.2018 16:00:00 16,4 13,7 14 8 W 1018,3 6
16.10.2018 15:00:00 17,4 13,6 14 8 WZW 1018,4 6
16.10.2018 14:00:00 17,7 14,2 11 6 W 1018,1 6
16.10.2018 13:00:00 17,8 14,2 14 8 W 1018,1 7
16.10.2018 12:00:00 17,9 13,8 11 6 W 1018,0 7
16.10.2018 11:00:00 18,1 13,3 7 4 ZZW 1017,7 7
16.10.2018 10:00:00 14,2 12,3 4 2 N 1017,4 6
16.10.2018 09:00:00 11,3 10,1 4 2 OZO 1017,4 6
16.10.2018 08:00:00 11,5 10,2 0 0 N 1016,7 5
16.10.2018 07:00:00 11,4 10,1 4 2 N 1016,0 6
16.10.2018 06:00:00 11,3 10,0 4 2 ZZO 1015,7 6
16.10.2018 05:00:00 10,5 9,4 4 2 Z 1015,8 7
16.10.2018 04:00:00 10,6 9,4 4 2 ZZW 1015,8 8
16.10.2018 03:00:00 10,4 9,0 4 2 Z 1015,5 8
16.10.2018 02:00:00 11,6 10,4 4 2 Z 1015,3 9
16.10.2018 01:00:00 11,7 10,2 4 2 ZZO 1014,9 9
16.10.2018 00:00:00 11,8 10,0 4 2 N 1014,8 9
15.10.2018 23:00:00 13,3 10,8 4 2 ZZO 1014,5 10
15.10.2018 22:00:00 12,9 11,1 7 4 ZZO 1014,3 10
15.10.2018 21:00:00 12,3 10,7 4 2 ZO 1014,1 11
15.10.2018 20:00:00 13,4 11,0 4 2 ZZO 1013,9 13
15.10.2018 19:00:00 15,5 11,2 4 2 Z 1013,5 15
15.10.2018 18:00:00 20,7 11,3 4 2 N 1013,1 20
15.10.2018 17:00:00 21,9 11,0 7 4 ZZW 1012,8 20
15.10.2018 16:00:00 22,3 11,0 7 4 Z 1012,5 20
15.10.2018 15:00:00 21,9 10,6 11 6 Z 1012,5 15
15.10.2018 14:00:00 21,3 11,0 7 4 Z 1012,4 15
15.10.2018 13:00:00 19,7 11,2 7 4 Z 1012,7 15
15.10.2018 12:00:00 18,5 10,5 7 4 Z 1012,9 11
15.10.2018 11:00:00 16,8 9,8 7 4 N 1012,7 10
15.10.2018 10:00:00 13,6 9,5 11 6 ZO 1012,4 8
15.10.2018 09:00:00 10,6 8,0 7 4 ZO 1012,2 9
15.10.2018 08:00:00 9,8 7,7 7 4 ZO 1011,9 9
15.10.2018 07:00:00 10,1 7,8 7 4 ZO 1011,7 10
15.10.2018 06:00:00 10,1 7,7 11 6 ZO 1011,5 10
15.10.2018 05:00:00 11,1 8,3 7 4 ZO 1011,3 12
15.10.2018 04:00:00 10,6 8,2 7 4 ZZO 1011,2 11
15.10.2018 03:00:00 11,2 8,3 7 4 ZO 1011,2 11
15.10.2018 02:00:00 12,6 8,4 7 4 ZZO 1011,2 12
15.10.2018 01:00:00 13,3 8,4 7 4 Z 1011,1 12
15.10.2018 00:00:00 14,6 8,7 7 4 Z 1011,0 12
14.10.2018 23:00:00 15,3 9,0 4 2 N 1011,0 13
14.10.2018 22:00:00 16,6 9,4 4 2 N 1010,8 13
14.10.2018 21:00:00 16,7 9,9 4 2 ZZO 1010,6 13

tt = temperatuur
td = dauwpunt
ff = windsnelheid
dd = windrichting
ppp = luchtdruk
vv = zicht

Weerstations in de omgeving